Regional Weather Roundup
Issued by NWS Charleston, WV

Home | Current Version | Previous Version | Graphics & Text | Print | Product List | Glossary On
Versions: 1 2 3 4 5 6 7 8 9 10 11 12 13 14 15 16 17 18 19 20 21 22 23 24 25 26 27
000
ASUS41 KRLX 171610
RWRRLX
West Virginia Regional Weather Roundup
National Weather Service Charleston WV
1100 AM EST SUN DEC 17 2017

Note: "fair" indicates few or no clouds below 12,000 feet with no
significant weather and/or obstructions to visibility.

WVZ003-171700-
Northern Panhandle of West Virginia

CITY           SKY/WX    TMP DP  RH WIND       PRES   REMARKS
WHEELING       CLOUDY    37  27  67 S7        30.21F
$$

WVZ009-171700-
Northwest West Virginia

CITY           SKY/WX    TMP DP  RH WIND       PRES   REMARKS
PARKERSBURG    MOSUNNY   40  28  62 S5        30.25F
$$

WVZ006-171700-
Western West Virginia

CITY           SKY/WX    TMP DP  RH WIND       PRES   REMARKS
HUNTINGTON     CLOUDY    42  27  55 SW3       30.24R
$$

WVZ015-171700-
West Central West Virginia

CITY           SKY/WX    TMP DP  RH WIND       PRES   REMARKS
CHARLESTON     CLOUDY    36  29  75 CALM      30.24F
$$

WVZ022-031-171700-
North Central West Virginia

CITY           SKY/WX    TMP DP  RH WIND       PRES   REMARKS
CLARKSBURG     CLOUDY    42  28  57 S5        30.24F
MORGANTOWN     CLOUDY    41  27  57 S5        30.24F
$$

WVZ025-035-042-045-171700-
Southern West Virginia

CITY           SKY/WX    TMP DP  RH WIND       PRES   REMARKS
BECKLEY        CLOUDY    40  25  55 SE3       30.22F
LOGAN            N/A     39  28  65 CALM      30.22F
BLUEFIELD      CLOUDY    38  23  55 CALM      30.22F
LEWISBURG      CLOUDY    34  28  76 CALM      30.26R
$$

WVZ047-171700-
Northern Mountains of West Virginia

CITY           SKY/WX    TMP DP  RH WIND       PRES   REMARKS
ELKINS         CLOUDY    34  27  75 CALM      30.25S
$$

WVZ052-171700-
Eastern Panhandle of West Virginia

CITY           SKY/WX    TMP DP  RH WIND       PRES   REMARKS
MARTINSBURG    CLOUDY    39  28  64 S3        30.27R
PETERSBURG     CLOUDY    33  27  78 CALM      30.27F
$$




USA.gov is the U.S. government's official web portal to all federal, state and local government web resources and services.